GW0980 Weather Reports


Display with metric or nautical units.
time (UTC)temp
F
wind
direction
speed
MPH
gust
MPH
rain 1hr
in
rain 24hr
in
rain mn
in
humidity
%
barometer
mb
20260831124548 49 0 1.0 3.0 0.00 0.00 0.00 93 1012.4
20260831123049 49 295 1.0 3.0 0.00 0.00 0.00 93 1012.5
20260831121554 49 296 0.0 2.0 0.00 0.00 0.00 93 1012.7
20260831120051 49 295 1.0 3.0 0.00 0.00 0.00 92 1012.8
20260831114550 50 295 0.0 2.0 0.00 0.00 0.00 93 1012.9
20260831113058 49 0 0.0 2.0 0.00 0.00 0.00 93 1013.0
20260831111553 49 297 0.0 2.0 0.00 0.00 0.00 93 1013.0
20260831110049 50 0 0.0 2.0 0.00 0.00 0.00 92 1013.1
20260831104554 50 305 1.0 3.0 0.00 0.00 0.00 92 1013.1
20260831103051 50 303 0.0 2.0 0.00 0.00 0.00 92 1013.1
20260831101548 51 0 0.0 2.0 0.00 0.00 0.00 91 1013.2
20260831100106 51 297 0.0 1.0 0.00 0.00 0.00 91 1013.4
20260831094550 51 0 1.0 3.0 0.00 0.00 0.00 92 1013.6
20260831093057 51 0 0.0 2.0 0.00 0.00 0.00 91 1013.7
20260831091551 51 295 1.0 3.0 0.00 0.00 0.00 92 1013.9
20260831090241 51 294 0.0 1.0 0.00 0.00 0.00 91 1014.1
20260831084548 52 0 0.0 1.0 0.00 0.00 0.00 90 1014.3
20260831083108 52 290 0.0 1.0 0.00 0.00 0.00 90 1014.3
20260831081558 53 313 0.0 3.0 0.00 0.00 0.00 89 1014.4
20260831080123 53 0 0.0 2.0 0.00 0.00 0.00 89 1014.7
20260831074550 53 0 0.0 3.0 0.00 0.00 0.00 88 1014.7
20260831073055 54 0 0.0 2.0 0.00 0.00 0.00 88 1014.9
20260831071551 54 0 0.0 1.0 0.00 0.00 0.00 87 1015.0
20260831070051 55 0 0.0 1.0 0.00 0.00 0.00 86 1015.1
20260831064544 55 0 0.0 1.0 0.00 0.00 0.00 85 1015.2
20260831063108 56 0 0.0 1.0 0.00 0.00 0.00 84 1015.2
20260831061550 57 0 0.0 0.0 0.00 0.00 0.00 82 1015.5
20260831060051 57 0 0.0 0.0 0.00 0.00 0.00 82 1015.6
20260831054553 57 0 0.0 1.0 0.00 0.00 0.00 82 1015.6
20260831053124 58 0 0.0 0.0 0.00 0.00 0.00 80 1015.8
20260831051545 59 0 0.0 1.0 0.00 0.00 0.00 78 1015.9
20260831050056 60 0 0.0 0.0 0.00 0.00 0.00 76 1015.9
20260831044643 61 0 0.0 0.0 0.00 0.00 0.00 75 1016.0
20260831043049 62 0 0.0 1.0 0.00 0.00 0.00 74 1016.1
20260831041603 63 0 0.0 0.0 0.00 0.00 0.00 72 1016.2
20260831040053 63 0 0.0 0.0 0.00 0.00 0.00 71 1016.1
20260831034549 65 0 0.0 0.0 0.00 0.00 0.00 69 1016.0
20260831033106 66 0 0.0 0.0 0.00 0.00 0.00 67 1016.0
20260831031552 67 0 0.0 1.0 0.00 0.00 0.00 65 1016.0
20260831030051 67 0 0.0 1.0 0.00 0.00 0.00 64 1015.9
20260831024545 68 0 0.0 2.0 0.00 0.00 0.00 62 1015.8
20260831023051 70 283 0.0 4.0 0.00 0.00 0.00 60 1015.7
20260831021550 71 322 3.0 4.0 0.00 0.00 0.00 58 1015.8
20260831020049 71 276 2.0 8.0 0.00 0.00 0.00 58 1015.9
20260831014552 72 279 4.0 9.0 0.00 0.00 0.00 56 1016.0
20260831013050 73 282 6.0 10.0 0.00 0.00 0.00 55 1016.0
20260831011555 74 290 2.0 7.0 0.00 0.00 0.00 53 1016.2
20260831004552 74 30 0.0 3.0 0.00 0.00 0.00 45 1016.4
20260831003048 74 137 0.0 3.0 0.00 0.00 0.00 45 1016.5
20260831001555 74 0 1.0 2.0 0.00 0.00 0.00 45 1016.6
20260831000104 75 167 0.0 2.0 0.00 0.00 0.00 44 1016.7
20260830234554 74 162 0.0 3.0 0.00 0.00 0.00 45 1016.9
20260830233056 74 0 0.0 3.0 0.00 0.00 0.00 45 1017.1
20260830231555 74 56 0.0 4.0 0.00 0.00 0.00 45 1017.4
20260830230053 75 0 0.0 3.0 0.00 0.00 0.00 44 1017.5
20260830224550 76 0 0.0 2.0 0.00 0.00 0.00 43 1017.7
20260830223057 75 209 0.0 2.0 0.00 0.00 0.00 45 1018.0
20260830221551 75 231 1.0 4.0 0.00 0.00 0.00 43 1018.2
20260830220052 76 3 1.0 6.0 0.00 0.00 0.00 43 1018.4
20260830214549 75 0 0.0 2.0 0.00 0.00 0.00 44 1018.7
20260830213105 74 32 1.0 4.0 0.00 0.00 0.00 46 1019.0
20260830211553 74 261 0.0 3.0 0.00 0.00 0.00 46 1019.1
20260830210050 73 117 1.0 3.0 0.00 0.00 0.00 47 1019.2
20260830204553 74 33 0.0 4.0 0.00 0.00 0.00 46 1019.5
20260830203052 73 0 0.0 4.0 0.00 0.00 0.00 47 1019.6
20260830201550 72 70 1.0 6.0 0.00 0.00 0.00 48 1019.7
20260830200048 72 49 1.0 4.0 0.00 0.00 0.00 48 1020.0
20260830194555 71 97 0.0 4.0 0.00 0.00 0.00 49 1020.1
20260830193051 70 139 0.0 2.0 0.00 0.00 0.00 50 1020.1
20260830191549 69 0 0.0 2.0 0.00 0.00 0.00 54 1020.3
20260830190055 69 0 0.0 3.0 0.00 0.00 0.00 55 1020.5
20260830184555 66 0 0.0 2.0 0.00 0.00 0.00 58 1020.7
20260830183050 67 97 0.0 5.0 0.00 0.00 0.00 57 1020.7
20260830181555 65 217 0.0 1.0 0.00 0.00 0.00 62 1020.8
20260830180054 65 281 0.0 2.0 0.00 0.00 0.00 60 1020.8
20260830174550 64 144 1.0 4.0 0.00 0.00 0.00 63 1020.9
20260830173048 62 165 0.0 2.0 0.00 0.00 0.00 66 1020.9
20260830171555 62 0 0.0 3.0 0.00 0.00 0.00 69 1021.0
20260830170050 59 0 0.0 1.0 0.00 0.00 0.00 73 1021.1
20260830164550 57 0 0.0 1.0 0.00 0.00 0.00 78 1021.1
20260830163055 55 0 0.0 0.0 0.00 0.00 0.00 81 1021.1
20260830161613 53 0 0.0 1.0 0.00 0.00 0.00 86 1021.2
20260830160053 51 0 0.0 1.0 0.00 0.00 0.00 88 1021.3
20260830154550 50 0 0.0 1.0 0.00 0.00 0.00 91 1021.2
20260830153059 48 0 0.0 0.0 0.00 0.00 0.00 93 1021.1
20260830151553 46 0 0.0 1.0 0.00 0.00 0.00 94 1021.4
20260830150113 46 0 0.0 1.0 0.00 0.00 0.00 95 1021.4
20260830144549 44 299 0.0 1.0 0.00 0.00 0.00 94 1021.4
20260830143053 44 0 0.0 2.0 0.00 0.00 0.00 94 1021.5
20260830141549 44 311 1.0 2.0 0.00 0.00 0.00 94 1021.6
20260830140056 43 0 0.0 0.0 0.00 0.00 0.00 94 1021.5
20260830134550 43 0 0.0 1.0 0.00 0.00 0.00 94 1021.5
20260830133049 43 293 0.0 1.0 0.00 0.00 0.00 93 1021.4
20260830131549 44 311 1.0 2.0 0.00 0.00 0.00 94 1021.4
20260830130057 45 304 0.0 3.0 0.00 0.00 0.00 93 1021.0